Sterling Muni, Sterling, CO, CO

10:51 PM MDT on May 23, 2017 (GMT -0600)
Sterling Municipal

Weather History for KSTK - December, 2012

Change the Weather History Date:

Thursday, December 20, 2012

  Actual Average Record
Temperature  
Mean Temperature 16 °F -  
Max Temperature 32 °F 37 °F 41 °F (2015)
Min Temperature 1 °F 11 °F 10 °F (2013)
Degree Days  
Heating Degree Days 48    
Moisture  
Dew Point 7 °F    
Average Humidity 66    
Maximum Humidity 86    
Minimum Humidity 49    
Precipitation  
Precipitation 0.00 in - - ()
Sea Level Pressure  
Sea Level Pressure 30.17 in    
Wind  
Wind Speed 9 mph ()    
Max Wind Speed 23 mph    
Max Gust Speed 26 mph    
Visibility 10.0 miles    
Events      
Averages and records for this station are not official NWS values.
T = Trace of Precipitation, MM = Missing Value Source: Averaged Metar Reports

Daily Weather History Graph

Daily Weather History Graph

Search for Another Location

Airport or City:

Trip Planner

Search our weather history database for the weather conditions in past years. The results will help you decide how hot, cold, wet, or windy it might be!

Date:

Astronomy

Dec. 20, 2012 Rise Set
Actual Time 7:13 AM MST 4:28 PM MST
Civil Twilight 6:42 AM MST 4:59 PM MST
Nautical Twilight 6:07 AM MST 5:34 PM MST
Astronomical Twilight 5:34 AM MST 6:07 PM MST
Moon 11:49 AM MST (12/20) 12:00 AM MST (12/20)
Length of Visible Light 10h 17m
Length of Day
9h 15m
First Quarter, 56% of the Moon is Illuminated
Dec 20
First Quarter
Dec 28
Full
Jan 4
Last Quarter
Jan 11
New
Jan 18
First Quarter

Hourly Weather History & Observations

Time (MST) Temp. Windchill Dew Point Humidity Pressure Visibility Wind Dir Wind Speed Gust Speed Precip Events Conditions
12:15 AM 14.0 °F -1.4 °F 3.2 °F 62% 30.11 in 10.0 mi NNW 15.0 mph - N/A   Clear
12:35 AM 14.0 °F -1.4 °F 1.4 °F 57% 30.11 in 10.0 mi NW 15.0 mph - N/A   Clear
12:55 AM 15.8 °F -0.2 °F 3.2 °F 58% 30.11 in 10.0 mi NW 17.3 mph - N/A   Clear
1:15 AM 17.6 °F 0.9 °F 3.2 °F 53% 30.11 in 10.0 mi NW 20.7 mph 26.5 mph N/A   Clear
1:35 AM 19.4 °F 2.5 °F 5.0 °F 54% 30.11 in 10.0 mi NNW 23.0 mph - N/A   Clear
1:55 AM 19.4 °F 3.6 °F 3.2 °F 49% 30.12 in 10.0 mi NNW 19.6 mph - N/A   Clear
2:15 AM 17.6 °F 2.7 °F 5.0 °F 58% 30.14 in 10.0 mi WNW 16.1 mph - N/A   Clear
2:35 AM 14.0 °F 0.5 °F 1.4 °F 57% 30.15 in 10.0 mi NW 11.5 mph - N/A   Clear
2:55 AM 14.0 °F -0.2 °F 3.2 °F 62% 30.15 in 10.0 mi NW 12.7 mph - N/A   Clear
3:15 AM 15.8 °F 4.2 °F 5.0 °F 62% 30.15 in 10.0 mi NW 9.2 mph - N/A   Clear
3:35 AM 15.8 °F 2.7 °F 5.0 °F 62% 30.15 in 10.0 mi NW 11.5 mph - N/A   Clear
3:55 AM 15.8 °F 3.4 °F 3.2 °F 58% 30.15 in 10.0 mi NNW 10.4 mph - N/A   Clear
4:15 AM 14.0 °F 3.9 °F 3.2 °F 62% 30.14 in 10.0 mi North 6.9 mph - N/A   Clear
4:35 AM 15.8 °F 4.2 °F 3.2 °F 58% 30.15 in 10.0 mi North 9.2 mph - N/A   Clear
4:55 AM 17.6 °F 8.2 °F 1.4 °F 49% 30.15 in 10.0 mi NNW 6.9 mph - N/A   Clear
5:15 AM 10.4 °F -0.4 °F -0.4 °F 62% 30.16 in 10.0 mi SW 6.9 mph - N/A   Clear
5:35 AM 8.6 °F -3.7 °F -0.4 °F 67% 30.16 in 10.0 mi WSW 8.1 mph - N/A   Clear
5:55 AM 6.8 °F -5.9 °F -2.2 °F 67% 30.17 in 10.0 mi SW 8.1 mph - N/A   Clear
6:15 AM 5.0 °F -9.1 °F -0.4 °F 78% 30.17 in 10.0 mi SSW 9.2 mph - N/A   Clear
6:35 AM 3.2 °F -6.2 °F -4.0 °F 72% 30.17 in 10.0 mi SW 4.6 mph - N/A   Clear
6:55 AM 3.2 °F -7.8 °F -4.0 °F 72% 30.18 in 10.0 mi SSW 5.8 mph - N/A   Clear
7:15 AM 3.2 °F -13.1 °F -4.0 °F 72% 30.19 in 10.0 mi SSW 11.5 mph - N/A   Clear
7:35 AM 1.4 °F -11.3 °F -4.0 °F 78% 30.20 in 10.0 mi SSW 6.9 mph - N/A   Clear
7:55 AM 3.2 °F -7.8 °F -4.0 °F 72% 30.20 in 10.0 mi South 5.8 mph - N/A   Clear
8:15 AM 5.0 °F -6.9 °F -4.0 °F 66% 30.21 in 10.0 mi SSW 6.9 mph - N/A   Clear
8:35 AM 5.0 °F -8.1 °F -2.2 °F 72% 30.22 in 10.0 mi SSW 8.1 mph - N/A   Clear
8:55 AM 8.6 °F -1.3 °F -0.4 °F 67% 30.22 in 10.0 mi SSW 5.8 mph - N/A   Clear
9:15 AM 8.6 °F -2.6 °F -0.4 °F 67% 30.22 in 10.0 mi SSW 6.9 mph - N/A   Clear
9:35 AM 10.4 °F 0.8 °F 1.4 °F 67% 30.22 in 10.0 mi SSW 5.8 mph - N/A   Clear
9:55 AM 12.2 °F 1.7 °F 1.4 °F 62% 30.23 in 10.0 mi SSW 6.9 mph - N/A   Clear
10:15 AM 14.0 °F 3.9 °F 3.2 °F 62% 30.23 in 10.0 mi SSW 6.9 mph - N/A   Clear
10:35 AM 17.6 °F 10.7 °F 5.0 °F 58% 30.23 in 10.0 mi South 4.6 mph - N/A   Clear
10:55 AM 19.4 °F 10.4 °F 6.8 °F 58% 30.21 in 10.0 mi SSW 6.9 mph - N/A   Clear
11:15 AM 21.2 °F 13.6 °F 8.6 °F 58% 30.20 in 10.0 mi South 5.8 mph - N/A   Clear
11:35 AM 23.0 °F 15.8 °F 8.6 °F 54% 30.20 in 10.0 mi SSE 5.8 mph - N/A   Clear
11:55 AM 26.6 °F 19.1 °F 10.4 °F 51% 30.18 in 10.0 mi South 6.9 mph - N/A   Clear
12:15 PM 26.6 °F 19.1 °F 12.2 °F 55% 30.17 in 10.0 mi SSW 6.9 mph - N/A   Clear
12:35 PM 28.4 °F 22.2 °F 14.0 °F 55% 30.17 in 10.0 mi SSW 5.8 mph - N/A   Clear
12:55 PM 28.4 °F 22.2 °F 14.0 °F 55% 30.16 in 10.0 mi SW 5.8 mph - N/A   Clear
1:15 PM 30.2 °F 24.3 °F 14.0 °F 51% 30.16 in 10.0 mi SW 5.8 mph - N/A   Clear
1:35 PM 30.2 °F 24.3 °F 14.0 °F 51% 30.16 in 10.0 mi SSW 5.8 mph - N/A   Clear
1:55 PM 32.0 °F 27.5 °F 17.6 °F 55% 30.16 in 10.0 mi SSW 4.6 mph - N/A   Clear
2:15 PM 32.0 °F 28.7 °F 15.8 °F 51% 30.16 in 10.0 mi South 3.5 mph - N/A   Clear
2:35 PM 32.0 °F 26.4 °F 17.6 °F 55% 30.16 in 10.0 mi SSW 5.8 mph - N/A   Clear
2:55 PM 32.0 °F 26.4 °F 17.6 °F 55% 30.16 in 10.0 mi SSW 5.8 mph - N/A   Clear
3:15 PM 32.0 °F 27.5 °F 17.6 °F 55% 30.16 in 10.0 mi South 4.6 mph - N/A   Clear
3:35 PM 30.2 °F 24.3 °F 17.6 °F 60% 30.16 in 10.0 mi SSW 5.8 mph - N/A   Clear
3:55 PM 28.4 °F 22.2 °F 17.6 °F 64% 30.16 in 10.0 mi SSW 5.8 mph - N/A   Clear
4:15 PM 28.4 °F 19.7 °F 17.6 °F 64% 30.16 in 10.0 mi SW 9.2 mph - N/A   Clear
4:35 PM 23.0 °F 14.7 °F 14.0 °F 68% 30.16 in 10.0 mi SW 6.9 mph - N/A   Clear
4:55 PM 23.0 °F 14.7 °F 14.0 °F 68% 30.16 in 10.0 mi SSW 6.9 mph - N/A   Clear
5:15 PM 23.0 °F 18.4 °F 14.0 °F 68% 30.16 in 10.0 mi SW 3.5 mph - N/A   Clear
5:35 PM 23.0 °F - 14.0 °F 68% 30.16 in 10.0 mi Calm Calm - N/A   Clear
5:55 PM 21.2 °F 13.6 °F 12.2 °F 68% 30.16 in 10.0 mi WSW 5.8 mph - N/A   Clear
6:15 PM 21.2 °F - 14.0 °F 74% 30.17 in 10.0 mi Calm Calm - N/A   Clear
6:35 PM 19.4 °F - 12.2 °F 74% 30.17 in 10.0 mi Calm Calm - N/A   Clear
6:55 PM 19.4 °F 10.4 °F 12.2 °F 74% 30.17 in 10.0 mi WSW 6.9 mph - N/A   Clear
7:15 PM 19.4 °F 10.4 °F 12.2 °F 74% 30.17 in 10.0 mi WSW 6.9 mph 10.4 mph N/A   Clear
7:35 PM 19.4 °F - 12.2 °F 74% 30.17 in 10.0 mi Calm Calm - N/A   Clear
7:55 PM 17.6 °F 10.7 °F 8.6 °F 68% 30.17 in 10.0 mi SSW 4.6 mph - N/A   Clear
8:15 PM 14.0 °F - 8.6 °F 79% 30.17 in 10.0 mi Calm Calm - N/A   Clear
8:35 PM 14.0 °F 0.5 °F 8.6 °F 79% 30.17 in 10.0 mi WSW 11.5 mph - N/A   Clear
8:55 PM 15.8 °F 10.2 °F 10.4 °F 79% 30.17 in 10.0 mi SW 3.5 mph - N/A   Clear
9:15 PM 14.0 °F 3.9 °F 8.6 °F 79% 30.17 in 10.0 mi WSW 6.9 mph - N/A   Clear
9:35 PM 14.0 °F 5.1 °F 10.4 °F 86% 30.17 in 10.0 mi SW 5.8 mph - N/A   Clear
9:55 PM 15.8 °F 6.1 °F 12.2 °F 86% 30.17 in 10.0 mi SW 6.9 mph - N/A   Clear
10:15 PM 15.8 °F 7.2 °F 12.2 °F 86% 30.17 in 10.0 mi SW 5.8 mph - N/A   Clear
10:35 PM 14.0 °F 3.9 °F 8.6 °F 79% 30.18 in 10.0 mi SW 6.9 mph - N/A   Clear
10:55 PM 14.0 °F 5.1 °F 10.4 °F 86% 30.18 in 10.0 mi SW 5.8 mph - N/A   Clear
11:15 PM 14.0 °F 2.9 °F 10.4 °F 86% 30.18 in 10.0 mi SW 8.1 mph - N/A   Clear
11:35 PM 14.0 °F 2.9 °F 10.4 °F 86% 30.18 in 10.0 mi SSW 8.1 mph - N/A   Clear
11:55 PM 14.0 °F 3.9 °F 10.4 °F 86% 30.18 in 10.0 mi SSW 6.9 mph - N/A   Clear